{"data":{"norad_id":51774,"epoch":"2026-05-24T23:16:38.474400Z","epoch_age_seconds":73662,"freshness":"FRESH","line1":"1 51774U 22017G   26144.96988975 -.00000025  00000+0  16499-4 0  9994","line2":"2 51774  53.2138 356.6855 0001354  83.1911 276.9235 15.08840188234086","mean_motion":15.08840188,"eccentricity":0.0001354,"inclination_deg":53.2138,"raan_deg":356.6855,"arg_perigee_deg":83.1911,"mean_anomaly_deg":276.9235,"bstar":1.6499e-5,"rev_number":23408,"period_min":95.43754278634,"perigee_km":538.80613339652,"apogee_km":540.67949525023,"semimajor_km":6917.8798143234,"source":"CELESTRAK","updated_at":"2026-05-25T13:38:16.950717Z"}}